Regional Weather Roundup
Issued by NWS Pendleton, OR

Home | Current Version | Previous Version | Text Only | Print | Product List | Glossary On
Versions: 1 2 3 4 5 6 7 8 9 10 11 12 13 14 15 16 17 18 19 20 21 22 23 24 25 26 27 28 29 30 31 32 33 34 35 36 37 38 39 40 41 42 43 44 45 46 47 48 49 50
000
ASUS46 KPDT 270325
RWRPDT
PENDLETON REGIONAL WEATHER ROUNDUP
NATIONAL WEATHER SERVICE PENDLETON OREGON
800 PM PDT FRI MAY 26 2017

NOTE: FAIR INDICATES FEW OR NO CLOUDS BELOW 12,000 FEET WITH NO
SIGNIFICANT WEATHER AND/OR OBSTRUCTIONS TO VISIBILITY.

# INDICATES UNOFFICIAL STATION AND DATA

WAZ520-270410-
EAST SLOPES OF WASHINGTON CASCADES

CITY            SKY/WX      TMP DP  RH  WIND    PRES   REMARKS
#BULLFROG       N/A         73  43  34  W9      N/A
#CLE ELUM HS    N/A         72  43  35  W1      29.91R
#CLE ELUM LAKE  N/A         68  46  45  CALM    29.99R
#EASTON DOT     N/A         67  44  43  N3      N/A
#ELK HTS DOT    N/A         71  71  100 W5      N/A
#GLENWOOD       N/A         71  50  47  S1      29.92R
#NELSON 3SW     N/A         63  45  52  CALM    30.12R
#NILE           N/A         71  45  39  W1      29.21R
#TEANAWAY 4NE   N/A         68  50  53  CALM    N/A
#TROUT LAKE 1NE N/A         71  49  46  N1      29.92R
#TROUT LAKE 1E  N/A         74  48  40  CALM    29.98R
$$

WAZ521-270410-
SIMCOE HIGHLANDS

CITY            SKY/WX      TMP DP  RH  WIND    PRES   REMARKS
#BICKLETON HS   N/A         65  47  52  S3      29.99R
#SATUS PASS DOT N/A         63  38  39  E2      N/A
#CENTERVILLE 1SWN/A         73  44  35  CALM    29.88S
#GOLDENDALE 1NE N/A         73  31  21  S2      N/A
#GOLDENDALE 4W  N/A         74  20  13  CALM    30.00R
#GOODNOE HILLS  N/A         79  41  26  E1      N/A
#LYLE 6NE       N/A         73  47  40  CALM    29.88S
#PITT 4SE       N/A         71  43  36  CALM    29.95R
$$

WAZ026-270410-
KITTITAS VALLEY

CITY            SKY/WX      TMP DP  RH  WIND    PRES   REMARKS
ELLENSBURG AP   CLEAR       75  44  33  CALM    29.95
YTC-OPS AREA    CLEAR       66  33  29  SW12    30.02R
#ELLENSBURG CWU N/A         75  43  32  CALM    29.84R
#ELLENSBURG 3NE N/A         72  55  55  CALM    28.03R
#KITTITAS 4N    N/A         81  46  29  CALM    29.97R
#KITTITAS 3S    N/A         70  53  55  CALM    29.89R
#MANASTASH RDG  N/A         74  74  100 S1      N/A
#ROCKY CYN DOT  N/A         74  44  34  W9      N/A
#RYEGRASS DOT   N/A         70  39  32  SE6     N/A
#THORP 6N       N/A         70  46  42  W12     29.92S
$$

WAZ027-270410-
YAKIMA VALLEY

CITY            SKY/WX      TMP DP  RH  WIND    PRES   REMARKS
SUNNYSIDE AP    CLEAR       73  45  37  SE6     29.93S
YAKIMA AIRPORT  PTCLDY      78  43  29  SE3     29.93R
YAKIMA-VAGABOND CLEAR       71  40  32  S8      29.92R
#DONALD 2NE     N/A         76  15  10  SE1     28.79R
#GRANDVIEW      N/A         74  41  30  CALM    29.93R
#MABTON         N/A         76  46  34  S5      29.92R
#MOXEE 2E       N/A         71  N/A N/A E3      29.94R
#NACHES 2SW     N/A         75  49  40  CALM    29.96S
#OUTLOOK DOT    N/A         78  41  27  CALM    29.89S
#PARKER DOT     N/A         76  44  32  W2      29.92S
#TERRACE HTS    N/A         76  45  33  CALM    29.87R
#TOPPENISH      N/A         78  44  30  SE1     29.82S
#I82 S UMTANUM RN/A         74  40  29  S3      N/A
#UNION GAP DOT  N/A         77  39  25  SE2     29.95R
#WEST VALLEY    N/A         76  43  31  CALM    29.88S
#W YAKIMA       N/A         75  44  33  CALM    29.91R
#WHITE SWAN 5E  N/A         75  46  36  CALM    29.90R
#WILEY CITY 3W  N/A         71  43  36  CALM    29.91S
#ZILLAH DOT     N/A         77  43  30  E3      N/A
$$

WAZ028-270410-
LOWER COLUMBIA BASIN...WASHINGTON

CITY            SKY/WX      TMP DP  RH  WIND    PRES   REMARKS
PASCO           CLEAR       79  39  24  S7      29.93R
PROSSER AWOS    N/A         73  43  34  S7      29.96R
RICHLAND AWOS   CLEAR       78  41  27  SE6     29.93R
#BENTON CITY    N/A         75  46  36  CALM    29.82R
#CONNELL 5N     N/A         74  47  38  W3      29.92R
#CONNELL 5NW    N/A         72  50  46  S1      29.87R
#ELTOPIA 6NW    N/A         75  52  45  CALM    28.91S
#KAHLOTUS       N/A         74  39  28  CALM    29.92R
#KENNEWICK 3S   N/A         75  44  33  CALM    29.92S
#PATERSON       N/A         77  45  32  CALM    29.90R
#PROSSER DOT    N/A         78  41  27  S6      29.94R
#SAGEMOOR 2W    N/A         75  56  52  CALM    29.77F
#TOUCHET 2S     N/A         67  58  73  CALM    29.90S
#WEST PASCO     N/A         81  46  29  S1      29.90S
$$

WAZ029-270410-
FOOTHILLS OF THE BLUES...WASHINGTON

CITY            SKY/WX      TMP DP  RH  WIND    PRES   REMARKS
WALLA WALLA AP  CLEAR       73  46  38  S7      29.96S
#CLYDE 6NW      N/A         70  45  41  W2      29.92R
#DAYTON SCHOOL  N/A         70  40  34  SE1     29.99R
#LOWDEN 2SE     N/A         76  48  37  S1      29.90S
#PLEASANT VIEW 1N/A         71  41  34  SW3     29.96R
#PRESCOTT       N/A         72  51  48  CALM    29.91S
#WHITMAN COLLEGEN/A         74  47  38  CALM    29.98R
#WAITSBURG 6SSE N/A         60  48  64  E3      29.95R
#WAITSBURG 8N   N/A         61  N/A N/A S1      29.97F
#WALLA WALLA 5E N/A         72  53  51  S1      N/A
#WHITMAN MISSIONN/A         76  52  43  CALM    29.93S
$$

WAZ030-270410-
BLUE MOUNTAINS...WASHINGTON

CITY            SKY/WX      TMP DP  RH  WIND    PRES   REMARKS
#DIXIE 5SE      N/A         65  43  45  W2      29.95S
$$

ORZ009-041-WAZ024-270410-
COLUMBIA RIVER GORGE

CITY            SKY/WX      TMP DP  RH  WIND    PRES   REMARKS
HOOD RIVER AP   CLEAR       73  46  38  CALM    29.92R
THE DALLES AP   CLEAR       82  42  24  CALM    29.90R
#ARLINGTON AIRPON/A         73  44  35  SE3     29.93R
#CELILO DOT     N/A         81  45  28  S2      N/A
#LYLE           N/A         81  45  28  E2      29.90R
#MARYHILL       N/A         75  40  28  N3      N/A
#MURDOCK        N/A         78  46  32  N5      29.85S
#RUFUS DOT      N/A         81  42  25  CALM    N/A
#SMITHVILLE     N/A         76  48  37  N3      29.82S

$$

ORZ510-270410-
NORTH CENTRAL OREGON

CITY            SKY/WX      TMP DP  RH  WIND    PRES   REMARKS
#ANTELOPE       N/A         65  41  41  N2      29.82R
#CHENOWITH 1W   N/A         51  35  54  NW14    N/A
#DUFUR          N/A         72  44  37  CALM    29.88S
#DUFUR 9E       N/A         75  39  27  CALM    29.97R
#GRASS VALLEY 1SN/A         71  38  30  CALM    30.01R
#KENT DOT       N/A         71  31  23  N5      N/A
#MAUPIN SCHOOL  N/A         77  46  33  CALM    29.97S
#MORO SCHOOL    N/A         74  47  38  CALM    30.05R
#SHANIKO 5WSW   N/A         69  29  22  N6      N/A
#SHANIKO 4NW    N/A         66  33  29  N5      30.03S
#TYGH VALLEY 2NEN/A         75  43  32  N2      29.91R
#WAPANITIA AIRPON/A         74  41  30  CALM    29.94S
#WASCO DOT      N/A         78  42  28  S2      N/A
#WASCO 5NE      N/A         75  45  34  CALM    29.92R
$$

ORZ511-270410-
CENTRAL OREGON

CITY            SKY/WX      TMP DP  RH  WIND    PRES   REMARKS
BEND AIRPORT    CLEAR       66  34  30  N6      29.98R
MADRAS AIRPORT  CLEAR       64  37  37  N3      30.01S
PRINEVILLE AP   CLEAR       66  32  28  MISG    30.03R
REDMOND AIRPORT CLEAR       70  31  23  N10     30.01R
#ASHWOOD SCHOOL N/A         71  38  30  CALM    29.96R
#BEND 1SW       N/A         62  36  38  CALM    N/A
#BEND-AWBREY    N/A         67  36  32  CALM    29.95R
#BEND-KIM LN    N/A         69  34  27  NE5     29.89R
#CULVER         N/A         70  40  34  CALM    29.86S
#CULVER 8W      N/A         71  34  26  CALM    30.02R
#MADRAS 4S      N/A         70  17  13  N3      N/A
#POWELL BUTTE   N/A         68  37  32  N1      29.99R
#PRINEVILLE     N/A         69  35  28  N1      30.02R
#PRINEVILLE 3N  N/A         63  41  44  N3      29.95R
#WARM SPRINGS   N/A         75  38  26  CALM    29.78R

$$


ORZ509-270410-
EAST SLOPES OF OREGON CASCADES

CITY            SKY/WX      TMP DP  RH  WIND    PRES   REMARKS
SISTERS AWOS    N/A         70  30  22  N6      29.99S
#CAMP SHERMAN   N/A         67  33  28  CALM    30.01F
#LA PINE 4SW    N/A         64  30  28  NE2     30.03S
#LA PINE 4NW    N/A         64  36  35  CALM    30.00R
#LAVA BUTTE DOT N/A         62  31  31  N2      N/A
#SISTERS 3N     N/A         64  32  30  CALM    30.03R
#SUNRIVER       N/A         64  36  35  CALM    29.98R
#TUMALO 3W      N/A         67  32  27  NE3     29.82R
#WANOGA BUTTE D N/A         55  25  31  NE7     N/A

$$

ORZ044-270410-
LOWER COLUMBIA BASIN...OREGON

CITY            SKY/WX      TMP DP  RH  WIND    PRES   REMARKS
HERMISTON       CLEAR       74  42  32  SE5     29.93S
#BOARDMAN SCHOOLN/A         79  43  28  SE1     29.91R
#BOARDMAN 8SW   N/A         75  44  33  E3      29.92R
#ECHO 8SW       N/A         76  45  33  CALM    29.95S
#IONE SCHOOL    N/A         76  38  25  CALM    29.93S
#UMATILLA       N/A         76  43  31  CALM    29.84S
$$

ORZ507-270410-
NORTHERN FOOTHILLS OF THE BLUES

CITY            SKY/WX      TMP DP  RH  WIND    PRES   REMARKS
PENDLETON AIRPT CLEAR       68  48  49  E6      29.97R
#ADAMS 3WNW     N/A         70  45  41  CALM    29.94S
#ATHENA         N/A         69  42  37  CALM    29.98S
#CAYUSE         N/A         71  44  38  E1      29.93S
#HELIX SCHOOL   N/A         71  40  32  CALM    29.95
#HELIX 3N       N/A         69  42  37  N1      29.96S
#HOLDMAN 5SE    N/A         76  42  30  CALM    29.96S
#HOLDMAN 6E     N/A         72  43  35  NE1     29.75S
#M-F FERNDALE   N/A         74  45  35  CALM    29.92S
#M-FREEWATER 5SEN/A         75  52  45  CALM    29.97R
#PENDLETON DNTN N/A         73  40  30  E3      29.95S
#PDT AQUATIC CTRN/A         72  41  33  CALM    29.99S
#PDT SUNRIDGE   N/A         72  47  41  CALM    29.98R
#PENDLETON 7NW  N/A         73  47  40  CALM    25.66S
#PILOT ROCK 1S  N/A         69  38  32  CALM    29.99R
#PILOT ROCK     N/A         73  43  34  CALM    30.01R
#TUTUILLA       N/A         70  49  47  CALM    29.96R
#UMAPINE 2E     N/A         73  52  48  CALM    29.92R
#WESTON SCHOOL  N/A         70  37  30  CALM    29.90R

$$

ORZ508-270410-
SOUTHERN FOOTHILLS OF THE BLUES

CITY            SKY/WX      TMP DP  RH  WIND    PRES   REMARKS
LEXINGTON       CLEAR       70  39  32  E6      30.01R
#AJAX           N/A         72  30  21  S1      30.13S
#CONDON 5W      N/A         65  30  27  NE2     30.02R
#FOSSIL SCHOOL  N/A         69  35  28  NE7     29.96R
#HEPPNER EOC    N/A         72  37  28  E1      29.89R
#HEPPNER 4NE    N/A         67  42  40  CALM    29.96S
#LEXINGTON 2SE  N/A         74  39  28  CALM    29.93R
#MIKKALO        N/A         74  34  23  E5      30.08R
#OLEX 4N        N/A         76  38  25  E5      29.93R
#RUGGS 5NE      N/A         75  38  26  CALM    30.23S
#RUGGS 2SW      N/A         67  40  37  E1      29.98R

$$

ORZ502-503-270410-
BLUE MOUNTAINS

CITY            SKY/WX      TMP DP  RH  WIND    PRES   REMARKS
MEACHAM         CLEAR       57  36  45  CALM    30.06R
#GRANITE        N/A         55  32  41  N2      29.71R
#GREENHORN 9SW  N/A         61  39  44  CALM    30.04R
#HARDMAN 10S    N/A         53  38  57  CALM    30.12R
#LONG CREEK HS  N/A         62  42  48  CALM    N/A
#PIKES PEAK     N/A         62  43  50  CALM    27.99S
#SUMMERVILLE 5NWN/A         54  42  64  NW2     30.05R
#TOLLGATE       N/A         51  41  68  CALM    29.94R
#TROY SCHOOL    N/A         71  51  49  CALM    29.78R
#UKIAH          N/A         63  43  48  N2      29.91S
#WESTON 4E      N/A         64  40  41  CALM    29.94S
$$

ORZ505-270410-
JOHN DAY BASIN

CITY            SKY/WX      TMP DP  RH  WIND    PRES   REMARKS
JOHN DAY        PTCLDY      63  34  34  CALM    30.04R
#ANTELOPE 9ESE  N/A         76  38  25  N1      N/A
#DAYVILLE SCHOOLN/A         72  35  26  N2      29.95R
#MITCHELL       N/A         69  42  37  CALM    30.16R
#MITCHELL 8NW   N/A         67  35  30  CALM    29.97R
#MONUMENT HS    N/A         74  37  26  E3      29.93R
#MT. VERNON 5SE N/A         62  37  39  CALM    29.99R
#SPRAY SCHOOL   N/A         72  N/A N/A CALM    N/A
$$

ORZ506-270410-
OCHOCO AND JOHN DAY HIGHLANDS

CITY            SKY/WX      TMP DP  RH  WIND    PRES   REMARKS
#HORSE RIDGE DO N/A         66  31  27  N8      N/A
#IZEE 6NW       N/A         61  38  42  CALM    N/A
#PAULINA ODOT   N/A         67  31  26  N3      N/A
#PINE MTN OBS   N/A         54  33  45  N6      N/A
#PRAIRIE CITY   N/A         68  35  29  CALM    30.15R
#SENECA         N/A         61  N/A N/A N2      N/A
#SENECA 9NW     N/A         58  36  44  CALM    29.98R
$$

ORZ049-270410-
GRANDE RONDE VALLEY

CITY            SKY/WX      TMP DP  RH  WIND    PRES   REMARKS
LA GRANDE       CLEAR       63  36  36  W8      30.01R
#COVE           N/A         65  46  50  NW1     30.04R
#COVE SCHOOL    N/A         65  44  46  CALM    30.02S
#COVE 6NW       N/A         64  44  48  N3      29.96R
#ELGIN 3N       N/A         63  36  36  CALM    29.99R
#ELGIN 1E       N/A         67  41  39  CALM    N/A
#IMBLER SCHOOL  N/A         64  40  41  CALM    29.97R
#ISLAND CITY 4N N/A         80  53  39  CALM    29.92R
#LA GRANDE-LEFFEN/A         60  40  47  N5      30.01R
#UNION 1S       N/A         69  44  40  N2      29.95R
$$

ORZ050-270410-
WALLOWA COUNTY

CITY            SKY/WX      TMP DP  RH  WIND    PRES   REMARKS
JOSEPH AIRPORT  PTCLDY      57  39  51  CALM    30.06R
#ENTERPRISE HS  N/A         64  44  48  W1      29.85R
#IMNAHA SCHOOL  N/A         65  41  41  CALM    29.97R
#IMNAHA 10S     N/A         61  39  44  CALM    29.99R
#JOSEPH 3N      N/A         59  38  45  W2      30.07R
#JOSEPH 3W      N/A         51  44  77  SW2     29.92R
#LOSTINE        N/A         58  43  57  CALM    29.78R
#LOSTINE 3SE    N/A         60  40  47  SW3     30.07R
#MT HOWARD 8000 N/A         43  34  70  NW5     30.17R
#PROMISE 1S     N/A         61  45  56  CALM    30.03S
#WALLOWA LAKE   N/A         54  44  69  CALM    30.08R
#WALLOWA SCHOOL N/A         67  44  43  CALM    29.98R



$$



USA.gov is the U.S. government's official web portal to all federal, state and local government web resources and services.